• In Hungary
  • List of Countries
  • For 7 days
  • Water Temperature
  • Satellite Maps
  • Weather Map
  • News
  • Weather Widgets
  • user-avatar
    Login

    Hourly Weather Leonowka

    Today, 16 July, Monday

    Time Temperature Precipitation Wind Pressure Humidity
    00:00 +17°C° 0 mm 3 mps 750 mmHg 92%
    01:00 +17°C° 0 mm 3 mps 750 mmHg 93%
    02:00 +16°C° 0 mm 3 mps 749 mmHg 94%
    03:00 +16°C° 0 mm 3 mps 749 mmHg 95%
    04:00 +16°C° 0 mm 3 mps 749 mmHg 95%
    05:00 +17°C° 0.6 mm 3 mps 749 mmHg 93%
    06:00 +18°C° 0.6 mm 3 mps 749 mmHg 91%
    07:00 +19°C° 0.6 mm 4 mps 749 mmHg 89%
    08:00 +20°C° 0.6 mm 4 mps 749 mmHg 85%
    09:00 +21°C° 0.6 mm 3 mps 749 mmHg 82%
    10:00 +24°C° 0.6 mm 3 mps 749 mmHg 78%
    11:00 +25°C° 0.7 mm 4 mps 748 mmHg 74%
    12:00 +25°C° 0.7 mm 4 mps 748 mmHg 69%
    13:00 +26°C° 0.7 mm 4 mps 748 mmHg 64%
    14:00 +26°C° 0.8 mm 4 mps 747 mmHg 68%
    15:00 +25°C° 0.8 mm 4 mps 747 mmHg 71%
    16:00 +25°C° 0.8 mm 4 mps 747 mmHg 74%
    17:00 +23°C° 0.5 mm 4 mps 747 mmHg 79%
    18:00 +22°C° 0.5 mm 3 mps 747 mmHg 83%
    19:00 +20°C° 0.5 mm 3 mps 747 mmHg 88%
    20:00 +20°C° 0.7 mm 2 mps 746 mmHg 90%
    21:00 +19°C° 0.7 mm 2 mps 746 mmHg 92%
    22:00 +19°C° 0.7 mm 2 mps 746 mmHg 95%
    23:00 +19°C° 0.8 mm 2 mps 746 mmHg 95%

    Tomorrow, 17 July, Tuesday

    Time Temperature Precipitation Wind Pressure Humidity
    00:00 +19°C° 0.8 mm 2 mps 746 mmHg 95%
    01:00 +19°C° 0.8 mm 2 mps 746 mmHg 96%
    02:00 +18°C° 0.2 mm 2 mps 745 mmHg 96%
    03:00 +18°C° 0.2 mm 2 mps 745 mmHg 97%
    04:00 +18°C° 0.2 mm 3 mps 745 mmHg 97%
    05:00 +19°C° 0.1 mm 2 mps 745 mmHg 96%
    06:00 +19°C° 0.1 mm 2 mps 745 mmHg 95%
    07:00 +20°C° 0.1 mm 2 mps 745 mmHg 93%
    08:00 +20°C° 0.1 mm 2 mps 745 mmHg 90%
    09:00 +21°C° 0.1 mm 2 mps 745 mmHg 87%
    10:00 +23°C° 0.1 mm 2 mps 745 mmHg 84%
    11:00 +23°C° 0.1 mm 2 mps 745 mmHg 81%
    12:00 +24°C° 0.1 mm 2 mps 745 mmHg 78%
    13:00 +25°C° 0.1 mm 2 mps 745 mmHg 74%
    14:00 +25°C° 0.1 mm 2 mps 745 mmHg 73%
    15:00 +26°C° 0.1 mm 2 mps 745 mmHg 71%
    16:00 +26°C° 0.1 mm 2 mps 745 mmHg 70%
    17:00 +25°C° 0.6 mm 2 mps 745 mmHg 76%
    18:00 +24°C° 0.6 mm 2 mps 745 mmHg 82%
    19:00 +23°C° 0.6 mm 2 mps 745 mmHg 89%
    20:00 +21°C° 1.1 mm 2 mps 745 mmHg 90%
    21:00 +21°C° 1.1 mm 2 mps 745 mmHg 92%
    22:00 +21°C° 1.1 mm 2 mps 745 mmHg 94%
    23:00 +20°C° 0.3 mm 2 mps 745 mmHg 94%

    Day after tomorrow, 18 July, Wednesday

    Time Temperature Precipitation Wind Pressure Humidity
    00:00 +20°C° 0.3 mm 3 mps 745 mmHg 95%
    01:00 +20°C° 0.3 mm 3 mps 745 mmHg 95%
    02:00 +20°C° 0.3 mm 3 mps 745 mmHg 95%
    03:00 +20°C° 0.3 mm 3 mps 745 mmHg 96%
    04:00 +20°C° 0.3 mm 3 mps 745 mmHg 96%
    05:00 +20°C° 0.4 mm 3 mps 745 mmHg 94%
    06:00 +21°C° 0.4 mm 3 mps 745 mmHg 92%
    07:00 +22°C° 0.4 mm 3 mps 745 mmHg 90%
    08:00 +23°C° 1.2 mm 4 mps 745 mmHg 85%
    09:00 +25°C° 1.2 mm 4 mps 745 mmHg 81%
    10:00 +26°C° 1.2 mm 4 mps 745 mmHg 76%
    11:00 +27°C° 0.8 mm 4 mps 746 mmHg 74%
    12:00 +27°C° 0.8 mm 4 mps 746 mmHg 72%
    13:00 +28°C° 0.8 mm 5 mps 746 mmHg 70%
    14:00 +28°C° 0.6 mm 5 mps 746 mmHg 72%
    15:00 +28°C° 0.6 mm 6 mps 746 mmHg 73%
    16:00 +27°C° 0.6 mm 6 mps 746 mmHg 75%
    17:00 +26°C° 0.5 mm 6 mps 746 mmHg 79%
    18:00 +24°C° 0.5 mm 6 mps 747 mmHg 83%
    19:00 +23°C° 0.5 mm 6 mps 747 mmHg 87%
    20:00 +22°C° 0.1 mm 5 mps 747 mmHg 89%
    21:00 +21°C° 0.1 mm 5 mps 748 mmHg 91%
    22:00 +20°C° 0.1 mm 5 mps 748 mmHg 93%
    23:00 +20°C° 0 mm 5 mps 748 mmHg 93%

    19 July, Thursday

    Time Temperature Precipitation Wind Pressure Humidity
    00:00 +19°C° 0 mm 5 mps 748 mmHg 93%
    01:00 +19°C° 0 mm 5 mps 748 mmHg 93%
    02:00 +19°C° 0 mm 5 mps 748 mmHg 93%
    03:00 +19°C° 0 mm 5 mps 749 mmHg 93%
    04:00 +18°C° 0 mm 4 mps 749 mmHg 93%
    05:00 +19°C° 0 mm 5 mps 749 mmHg 92%
    06:00 +19°C° 0 mm 5 mps 749 mmHg 90%
    07:00 +20°C° 0 mm 5 mps 749 mmHg 89%
    08:00 +20°C° 0 mm 5 mps 749 mmHg 85%
    09:00 +21°C° 0 mm 5 mps 750 mmHg 81%
    10:00 +22°C° 0 mm 5 mps 750 mmHg 78%
    11:00 +23°C° 0 mm 6 mps 750 mmHg 74%
    12:00 +24°C° 0 mm 6 mps 750 mmHg 71%
    13:00 +26°C° 0 mm 6 mps 750 mmHg 67%
    14:00 +26°C° 0 mm 6 mps 750 mmHg 67%
    15:00 +26°C° 0 mm 6 mps 750 mmHg 66%
    16:00 +26°C° 0 mm 6 mps 750 mmHg 65%
    17:00 +25°C° 0 mm 5 mps 750 mmHg 70%
    18:00 +23°C° 0 mm 4 mps 750 mmHg 74%
    19:00 +22°C° 0 mm 3 mps 750 mmHg 79%
    20:00 +21°C° 0 mm 3 mps 750 mmHg 83%
    21:00 +19°C° 0 mm 3 mps 750 mmHg 88%
    22:00 +18°C° 0 mm 3 mps 751 mmHg 92%
    23:00 +18°C° 0 mm 3 mps 751 mmHg 93%

    20 July, Friday

    Time Temperature Precipitation Wind Pressure Humidity
    00:00 +17°C° 0 mm 3 mps 751 mmHg 93%
    01:00 +17°C° 0 mm 3 mps 751 mmHg 94%
    02:00 +16°C° 0 mm 3 mps 751 mmHg 94%
    03:00 +16°C° 0 mm 3 mps 751 mmHg 95%
    04:00 +14°C° 0 mm 3 mps 751 mmHg 95%
    05:00 +16°C° 0 mm 3 mps 751 mmHg 89%
    06:00 +18°C° 0 mm 3 mps 751 mmHg 83%
    07:00 +19°C° 0 mm 3 mps 751 mmHg 77%
    08:00 +21°C° 0 mm 4 mps 751 mmHg 70%
    09:00 +22°C° 0 mm 4 mps 751 mmHg 64%
    10:00 +25°C° 0 mm 4 mps 751 mmHg 57%
    11:00 +26°C° 0 mm 4 mps 751 mmHg 54%
    12:00 +26°C° 0 mm 4 mps 751 mmHg 52%
    13:00 +27°C° 0 mm 4 mps 750 mmHg 49%
    14:00 +27°C° 0 mm 4 mps 750 mmHg 49%
    15:00 +27°C° 0 mm 4 mps 750 mmHg 49%
    16:00 +27°C° 0 mm 4 mps 750 mmHg 50%
    17:00 +25°C° 0 mm 3 mps 750 mmHg 55%
    18:00 +24°C° 0 mm 3 mps 750 mmHg 61%
    19:00 +23°C° 0 mm 2 mps 750 mmHg 67%
    20:00 +20°C° 0 mm 2 mps 750 mmHg 70%
    21:00 +19°C° 0 mm 2 mps 751 mmHg 73%
    22:00 +17°C° 0 mm 2 mps 751 mmHg 76%
    23:00 +17°C° 0 mm 2 mps 751 mmHg 76%

    21 July, Saturday

    Time Temperature Precipitation Wind Pressure Humidity
    00:00 +16°C° 0 mm 2 mps 751 mmHg 77%
    01:00 +15°C° 0 mm 2 mps 751 mmHg 77%
    02:00 +15°C° 0 mm 1 mps 751 mmHg 77%
    03:00 +15°C° 0 mm 1 mps 750 mmHg 77%
    04:00 +14°C° 0 mm 1 mps 750 mmHg 77%
    05:00 +16°C° 0 mm 1 mps 750 mmHg 72%
    06:00 +19°C° 0 mm 1 mps 750 mmHg 67%
    07:00 +19°C° 0 mm 2 mps 750 mmHg 63%
    08:00 +21°C° 0 mm 2 mps 750 mmHg 59%
    09:00 +23°C° 0 mm 2 mps 750 mmHg 55%
    10:00 +25°C° 0 mm 2 mps 750 mmHg 51%
    11:00 +26°C° 0 mm 1 mps 750 mmHg 48%
    12:00 +27°C° 0 mm 1 mps 749 mmHg 46%
    13:00 +27°C° 0 mm 1 mps 749 mmHg 43%
    14:00 +28°C° 0 mm 1 mps 749 mmHg 43%
    15:00 +28°C° 0 mm 1 mps 748 mmHg 42%
    16:00 +28°C° 0 mm 1 mps 748 mmHg 42%
    17:00 +26°C° 0 mm 2 mps 748 mmHg 48%
    18:00 +25°C° 0 mm 2 mps 748 mmHg 53%
    19:00 +24°C° 0 mm 2 mps 748 mmHg 59%
    20:00 +21°C° 0 mm 2 mps 748 mmHg 60%
    21:00 +20°C° 0 mm 2 mps 748 mmHg 61%
    22:00 +19°C° 0 mm 3 mps 748 mmHg 62%
    23:00 +18°C° 0 mm 3 mps 748 mmHg 64%
    Show more